[[{"header":{"parameterUnit":"m.s-1","parameterCategory":1,"la1":30.2991,"la2":30.254,"lo1":-89.0895,"lo2":-89.0444,"dx":0.0017,"dy":0.0017,"nx":28,"ny":28,"refTime":"2022-12-13T15:00:00:Z","depth":0,"parameterNumber":2,"parameterNumberName":"U-component_of_WINDS"},"data":[0,0,0,0,0,0,0,0,0,0,0,0,0,0,0,0,0,0,0,0,0,0,0,0,0,0,0,0,0,0,0,0,0,0,0,0,0,0,0,0,0,0,0,0,0,0,0,0,0,0,0,0,0,0,0,0,0,0,2.8239,2.824,0,2.8269,2.8269,2.827,2.822,2.8218,2.8217,2.8215,2.8244,2.8246,2.8248,0,0,0,0,0,0,0,0,0,0,0,0,0,2.8139,2.8142,2.8239,2.824,2.824,2.8269,2.8269,2.827,2.822,2.8218,2.8216,2.8214,2.8243,2.8246,2.8249,0,0,0,0,0,0,0,0,0,0,0,0,0,2.8177,2.8142,2.8239,2.8219,2.8217,2.8269,2.8269,2.827,2.8221,2.8218,2.8216,2.8213,2.8242,2.8246,2.8249,2.8321,0,0,2.826,2.8261,0,0,0,0,0,0,0,0,2.8175,2.8181,2.8222,2.8221,2.8219,2.8238,2.8245,2.8287,2.8221,2.8219,2.8215,2.8212,2.8244,2.8247,2.8258,2.8322,2.8324,2.826,2.8262,2.8264,2.8265,0,0,0,0,0,0,0,2.8173,2.818,2.8251,2.8222,2.8221,2.8208,2.8211,2.8252,2.8245,2.8219,2.8216,2.822,2.8243,2.8255,2.8258,2.8324,2.826,2.8263,2.8265,2.8267,2.845,2.8453,0,0,0,0,0,0,2.8173,2.8178,2.825,2.8252,2.819,2.8212,2.8215,2.8235,2.8245,2.8244,2.8222,2.8218,2.825,2.8254,2.8259,2.8345,2.8264,2.8267,2.8269,2.8447,2.8451,2.8454,0,0,0,0,0,0,2.8171,2.818,2.8249,2.8214,2.8222,2.8216,2.8239,2.8236,2.8249,2.8247,2.8245,2.8236,2.8248,2.8254,2.8306,2.8345,2.8268,2.8272,2.8444,2.8448,2.8452,2.8517,0,0,0,0,0,0,2.8168,2.8179,2.8207,2.8215,2.8224,2.8296,2.8241,2.8239,2.8255,2.8249,2.826,2.8259,2.8247,2.8301,2.831,2.8349,2.8274,2.8441,2.8446,2.8451,2.8511,2.8523,2.8532,0,0,0,0,0,2.8165,2.8223,2.8208,2.8217,2.8258,2.8298,2.8303,2.8289,2.8258,2.8286,2.8285,2.8258,2.834,2.8307,2.8316,2.8357,2.8438,2.8444,2.8451,2.8506,2.852,2.8532,0,0,0,0,0,0,2.8219,2.8224,2.8207,2.827,2.8284,2.829,2.8324,2.8304,2.8326,2.832,2.8301,2.8303,2.836,2.8363,2.8327,2.8428,2.8384,2.8392,2.8423,2.8436,2.8447,2.8445,2.8277,0,0,0,0,0,2.8238,2.8271,2.8273,2.8328,2.8336,2.8329,2.8346,2.8334,2.8347,2.8353,2.8356,2.837,2.8398,2.8417,2.8444,2.8512,2.8513,2.8544,2.8555,2.8563,2.8571,2.8608,2.8621,2.8474,2.8474,2.8474,0,0,2.8278,2.8285,2.8306,2.8339,2.8349,2.8383,2.8334,2.8372,2.8397,2.8358,2.8408,2.8411,2.8425,2.8486,2.8512,2.849,2.8612,2.8571,2.8578,2.8581,2.8615,2.8629,2.8642,2.8479,2.8478,2.8477,0,0,2.8368,2.8377,2.8424,2.8435,2.845,2.8445,2.8457,2.8466,2.8466,2.8516,2.8488,2.8518,2.8567,2.8579,2.8591,2.8688,2.8664,2.8697,2.8752,2.8789,2.88,2.881,2.8845,2.8858,2.8704,2.8704,2.8705,0,2.8416,2.8466,2.845,2.8491,2.8506,2.8474,2.8522,2.8533,2.8556,2.8567,2.8543,2.8605,2.8612,2.8676,2.8699,2.871,2.8723,2.8695,2.88,2.881,2.8819,2.8852,2.8865,2.8708,2.8708,2.8707,2.8707,0,2.8524,2.856,2.8596,2.862,2.864,2.8684,2.8675,2.8697,2.8683,2.8681,2.8732,2.874,2.8768,2.8782,2.8769,2.8844,2.883,2.8803,2.8758,2.8837,2.8868,2.888,2.8714,2.8712,2.8711,2.871,0,0,2.8648,2.8664,2.8678,2.8689,2.8704,2.8731,2.8774,2.8802,2.8821,2.8838,2.8874,2.8917,2.8893,2.8907,2.8895,2.8927,2.9004,2.8896,2.8896,2.8916,2.9088,2.9108,2.9123,2.8989,2.8991,2.8993,2.9086,0,2.8738,2.8812,2.88,2.8872,2.8905,2.8875,2.8912,2.8926,2.8926,2.8953,2.8952,2.8984,2.8949,2.8958,2.8988,2.8988,2.9038,2.8981,2.9021,2.9023,2.9019,2.9139,2.916,2.9248,2.9098,2.91,2.9102,0,2.8853,2.8875,2.8951,2.8962,2.8975,2.9009,2.9034,2.9061,2.9076,2.9074,2.9091,2.9073,2.9116,2.9072,2.913,2.9092,2.9108,2.9111,2.9114,2.9117,2.9067,2.9145,2.9275,2.9289,2.912,2.9119,2.9118,0,2.8936,2.8985,2.9037,2.9047,2.9062,2.9086,2.9093,2.9106,2.9124,2.9146,2.9157,2.9184,2.9198,2.9219,2.921,2.9178,2.9271,2.9225,2.927,2.927,2.929,2.9289,2.9425,2.9301,2.93,2.93,2.93,0,2.9038,2.9085,2.9075,2.9107,2.9159,2.9145,2.9197,2.92,2.9212,2.9244,2.922,2.925,2.9236,2.9265,2.9258,2.9308,2.9315,2.9314,2.9311,2.9316,2.9316,2.9326,2.9319,2.9304,2.9303,2.9302,2.9302,0,2.9139,2.9134,2.9189,2.9198,2.9202,2.924,2.9248,2.9278,2.9276,2.9317,2.9326,2.9323,2.9357,2.9349,2.9386,2.9381,2.9444,2.9434,2.9439,2.9437,2.9482,2.9478,2.9629,2.9648,2.9512,2.9513,2.9514,0,2.9204,2.924,2.9254,2.9274,2.9284,2.9316,2.9335,2.9322,2.9343,2.9363,2.9391,2.9423,2.9447,2.9502,2.9503,2.9532,2.9522,2.9573,2.9526,2.953,2.9523,2.9521,2.9524,2.9582,2.9584,2.9585,2.9586,0,2.9321,2.9317,2.9345,2.9373,2.9396,2.9417,2.9435,2.9453,2.9442,2.9466,2.9501,2.952,2.9559,2.959,2.9617,2.9624,2.9603,2.9601,2.9613,2.9618,2.962,2.9619,2.9465,2.9597,2.9596,2.9595,2.9595,2.9594,2.9406,2.9437,2.9452,2.9484,2.9497,2.9516,2.9545,2.9547,2.9576,2.9606,2.9597,2.9637,2.9652,2.9685,2.9696,2.9726,2.9707,2.9724,2.9728,2.9733,2.9739,2.9615,2.9731,2.9731,2.973,2.973,2.973,0,2.9521,2.953,2.956,2.9587,2.9613,2.9593,2.9612,2.9635,2.967,2.9686,2.9712,2.9752,2.9783,2.9787,2.9817,2.9841,2.9832,2.9849,2.9847,2.9849,2.9754,2.9741,2.9855,2.9855,2.9855,2.9855,2.9855,2.9855,2.9584,2.9636,2.9634,2.9692,2.97,2.9739,2.9753,2.9769,2.9782,2.9828,2.9855,2.9857,2.9869,2.9899,2.9927,2.9927,2.9939,2.996,2.9957,2.9868,2.9855,2.9843,2.9831,2.9963,2.9963,3.0049,3.005,3.005]},{"header":{"parameterUnit":"m.s-1","parameterCategory":1,"la1":30.2991,"la2":30.254,"lo1":-89.0895,"lo2":-89.0444,"dx":0.0017,"dy":0.0017,"nx":28,"ny":28,"refTime":"2022-12-13T15:00:00:Z","depth":0,"parameterNumber":3,"parameterNumberName":"V-component_of_WINDS"},"data":[0,0,0,0,0,0,0,0,0,0,0,0,0,0,0,0,0,0,0,0,0,0,0,0,0,0,0,0,0,0,0,0,0,0,0,0,0,0,0,0,0,0,0,0,0,0,0,0,0,0,0,0,0,0,0,0,0,0,-5.0563,-5.0565,0,-5.0815,-5.0818,-5.0821,-5.0831,-5.0828,-5.0825,-5.0822,-5.1082,-5.1091,-5.1101,0,0,0,0,0,0,0,0,0,0,0,0,0,-5.0092,-5.0101,-5.0562,-5.0566,-5.0569,-5.0814,-5.0818,-5.0821,-5.0832,-5.0828,-5.0824,-5.0821,-5.1079,-5.109,-5.1102,0,0,0,0,0,0,0,0,0,0,0,0,0,-5.0316,-5.0104,-5.0562,-5.0603,-5.061,-5.0814,-5.0818,-5.0822,-5.0832,-5.0828,-5.0823,-5.0819,-5.1075,-5.1089,-5.1103,-5.1283,0,0,-5.1148,-5.1154,0,0,0,0,0,0,0,0,-5.0303,-5.0333,-5.0594,-5.0601,-5.0608,-5.0787,-5.0747,-5.0977,-5.0834,-5.0748,-5.0822,-5.0817,-5.0987,-5.1009,-5.1066,-5.1295,-5.1306,-5.1149,-5.1158,-5.1164,-5.1168,0,0,0,0,0,0,0,-5.0287,-5.0322,-5.0662,-5.0598,-5.0607,-5.061,-5.0637,-5.0791,-5.089,-5.0755,-5.0756,-5.0786,-5.099,-5.1052,-5.1072,-5.131,-5.1149,-5.1162,-5.1171,-5.1176,-5.1702,-5.1707,0,0,0,0,0,0,-5.0264,-5.0309,-5.0654,-5.067,-5.0441,-5.0622,-5.0652,-5.0734,-5.0888,-5.0907,-5.079,-5.0786,-5.1029,-5.1055,-5.1081,-5.1304,-5.1164,-5.1178,-5.1186,-5.1697,-5.1704,-5.1709,0,0,0,0,0,0,-5.0253,-5.0294,-5.0644,-5.049,-5.0535,-5.0635,-5.0727,-5.0741,-5.0803,-5.0914,-5.0932,-5.0834,-5.1027,-5.1061,-5.1233,-5.1313,-5.1184,-5.1197,-5.1691,-5.1699,-5.1706,-5.1749,0,0,0,0,0,0,-5.024,-5.0291,-5.0359,-5.0492,-5.0543,-5.0791,-5.0732,-5.075,-5.0828,-5.0825,-5.0961,-5.0979,-5.1026,-5.1212,-5.1248,-5.1331,-5.1209,-5.1684,-5.1695,-5.1704,-5.1741,-5.1757,-5.1772,0,0,0,0,0,-5.0223,-5.0361,-5.0363,-5.0404,-5.0631,-5.0796,-5.0825,-5.0876,-5.0834,-5.0905,-5.0977,-5.0975,-5.1298,-5.1229,-5.127,-5.1359,-5.168,-5.1692,-5.1703,-5.1734,-5.1754,-5.1771,0,0,0,0,0,0,-5.0236,-5.0379,-5.0382,-5.0567,-5.0669,-5.0797,-5.0888,-5.0895,-5.1012,-5.1004,-5.1062,-5.1093,-5.1265,-5.1329,-5.1249,-5.1542,-5.1484,-5.1505,-5.1494,-5.1514,-5.1529,-5.151,-5.1221,0,0,0,0,0,-5.026,-5.0381,-5.05,-5.0652,-5.0703,-5.0786,-5.086,-5.089,-5.0999,-5.1042,-5.1126,-5.1232,-5.1358,-5.1439,-5.1561,-5.175,-5.1781,-5.1831,-5.1846,-5.1858,-5.1876,-5.1983,-5.2007,-5.1748,-5.1748,-5.1748,0,0,-5.0311,-5.0404,-5.0477,-5.0657,-5.0739,-5.0865,-5.0823,-5.0956,-5.1051,-5.1062,-5.1231,-5.1297,-5.1418,-5.1601,-5.1685,-5.1659,-5.1954,-5.1873,-5.1882,-5.1893,-5.1998,-5.2022,-5.2044,-5.1756,-5.1755,-5.1753,0,0,-5.0469,-5.0551,-5.0687,-5.0771,-5.0897,-5.0952,-5.0985,-5.1112,-5.1157,-5.1326,-5.1339,-5.1451,-5.1666,-5.1753,-5.1825,-5.2018,-5.2022,-5.2056,-5.2136,-5.224,-5.226,-5.2279,-5.2349,-5.2374,-5.2073,-5.2073,-5.2073,0,-5.0517,-5.0706,-5.0756,-5.0891,-5.097,-5.0987,-5.1126,-5.1205,-5.1364,-5.1419,-5.1388,-5.1659,-5.1742,-5.1946,-5.1993,-5.2051,-5.2091,-5.2041,-5.2253,-5.2272,-5.229,-5.2358,-5.2384,-5.2076,-5.2076,-5.2076,-5.2075,0,-5.076,-5.089,-5.0985,-5.1139,-5.1229,-5.1365,-5.1437,-5.1523,-5.1545,-5.1604,-5.1778,-5.1878,-5.2022,-5.2072,-5.2095,-5.228,-5.2261,-5.2241,-5.2184,-5.2317,-5.2382,-5.2409,-5.2081,-5.208,-5.2079,-5.2078,0,0,-5.0932,-5.1113,-5.1147,-5.1218,-5.1358,-5.1461,-5.1599,-5.1739,-5.1811,-5.1921,-5.2039,-5.2221,-5.2204,-5.2286,-5.232,-5.241,-5.2559,-5.238,-5.2384,-5.2411,-5.2772,-5.2787,-5.2816,-5.2562,-5.2567,-5.2571,-5.2762,0,-5.1107,-5.1351,-5.1402,-5.1614,-5.1737,-5.1755,-5.1875,-5.1975,-5.2034,-5.2147,-5.2212,-5.2341,-5.2308,-5.2358,-5.2449,-5.2522,-5.2633,-5.2508,-5.2674,-5.2679,-5.2644,-5.285,-5.2866,-5.3041,-5.2787,-5.2792,-5.2795,0,-5.1343,-5.1458,-5.1683,-5.1809,-5.1862,-5.1969,-5.2103,-5.221,-5.2325,-5.2361,-5.2454,-5.2478,-5.2623,-5.2559,-5.2761,-5.2676,-5.2747,-5.2793,-5.2801,-5.2819,-5.2746,-5.2875,-5.3098,-5.3125,-5.2835,-5.2832,-5.2829,0,-5.1448,-5.166,-5.1822,-5.1882,-5.2032,-5.2108,-5.2174,-5.2284,-5.2366,-5.2482,-5.2536,-5.2668,-5.2741,-5.2844,-5.2903,-5.2851,-5.3102,-5.3042,-5.3138,-5.3137,-5.3191,-5.3187,-5.3429,-5.3234,-5.3233,-5.3233,-5.3232,0,-5.1638,-5.1775,-5.1872,-5.1972,-5.2126,-5.2184,-5.2335,-5.2401,-5.2499,-5.2614,-5.2637,-5.2744,-5.2816,-5.2933,-5.2981,-5.3142,-5.3174,-5.3209,-5.3221,-5.3208,-5.3204,-5.3256,-5.3246,-5.324,-5.3238,-5.3237,-5.3236,0,-5.1783,-5.1852,-5.2031,-5.2159,-5.2195,-5.2303,-5.2414,-5.2512,-5.2571,-5.2716,-5.2753,-5.2847,-5.2986,-5.3056,-5.3229,-5.3262,-5.3445,-5.3447,-5.3406,-5.3411,-5.3503,-5.3494,-5.3789,-5.3832,-5.3606,-5.3608,-5.361,0,-5.19,-5.2006,-5.2146,-5.2224,-5.2292,-5.2417,-5.2501,-5.2562,-5.2648,-5.2787,-5.287,-5.301,-5.3126,-5.3349,-5.3433,-5.3566,-5.3574,-5.3668,-5.3594,-5.3579,-5.3578,-5.3571,-5.3583,-5.3681,-5.3684,-5.3685,-5.3687,0,-5.2102,-5.2131,-5.225,-5.2383,-5.2482,-5.2589,-5.2694,-5.2757,-5.2835,-5.2931,-5.3074,-5.3164,-5.3342,-5.3482,-5.3622,-5.3692,-5.3704,-5.3709,-5.3739,-5.3728,-5.37,-5.3719,-5.3444,-5.3703,-5.3701,-5.37,-5.3699,-5.3698,-5.2238,-5.2333,-5.2447,-5.258,-5.2666,-5.2764,-5.2864,-5.2936,-5.3056,-5.3205,-5.3234,-5.3386,-5.35,-5.3689,-5.3764,-5.3884,-5.3864,-5.3906,-5.3917,-5.3927,-5.3933,-5.368,-5.391,-5.391,-5.3909,-5.3909,-5.3909,0,-5.2442,-5.2516,-5.2638,-5.2785,-5.289,-5.2891,-5.3008,-5.3096,-5.323,-5.3335,-5.3448,-5.3614,-5.3751,-5.3846,-5.3985,-5.4064,-5.4073,-5.4098,-5.4094,-5.411,-5.3942,-5.3904,-5.4089,-5.4089,-5.4089,-5.4089,-5.4089,-5.4089,-5.2561,-5.2724,-5.2767,-5.2973,-5.3047,-5.3196,-5.3264,-5.3355,-5.3439,-5.3623,-5.3737,-5.3798,-5.39,-5.4047,-5.4173,-5.4197,-5.4248,-5.4275,-5.4299,-5.4141,-5.4122,-5.4104,-5.4068,-5.4285,-5.4285,-5.4458,-5.446,-5.4461]}]]